Regional Weather Roundup
Issued by NWS Charleston, SC

Current Version | Previous Version | Graphics & Text | Print | Product List | Glossary On
Versions: 1 2 3 4 5 6 7 8 9 10 11 12 13 14 15 16 17 18 19 20 21 22 23 24 25 26 27 28 29 30 31 32 33 34 35 36 37 38 39 40 41 42 43 44 45 46 47 48 49 50
000
ASUS42 KCHS 281225
RWRCHS

REGIONAL WEATHER ROUNDUP
NATIONAL WEATHER SERVICE CHARLESTON SC
800 AM EDT MON JUL 28 2014

NOTE: "FAIR" INDICATES FEW OR NO CLOUDS BELOW 12,000 FEET WITH NO
SIGNIFICANT WEATHER AND/OR OBSTRUCTIONS TO VISIBILITY.

NOT ALL STATIONS ARE QUALITY CONTROLLED BY THE NATIONAL
WEATHER SERVICE. USE DATA WITH CAUTION...ESPECIALLY
DEWPOINT OBSERVATIONS.

SCZ027-030-031-034>040-042>050-281300-
...SOUTH CAROLINA...

CITY           SKY/WX    TMP DP  RH WIND       PRES   REMARKS
N CHARLESTON   PTSUNNY   83  74  74 SW9       29.88S
6HR MIN TEMP:  82; 6HR MAX TEMP:  85;

WATERFRONT PRK   N/A     84 N/A N/A SW8         N/A
FORT JOHNSON   NOT AVBL
MOUNT PLEASANT FAIR      82  75  78 SW7       29.88R HAZE
JOHNS ISLAND   SUNNY     84  72  65 SW7       29.89S
PINOPOLIS        N/A     82  75  78 SW12      29.77R
MONCKS CORNER    N/A     81  77  89 SW8       29.87R FOG
SUMMERVILLE    FAIR      79  75  89 SW5       29.89S
BEAUFORT MCAS  PTSUNNY   82  75  79 W13       29.90F
6HR MIN TEMP:  81; 6HR MAX TEMP:  84;

BEAUFORT ARPT  FAIR      82  77  83 SW12G20   29.90S HX  91
HILTON HEAD IS PTSUNNY   82  77  83 SW9       29.93S HX  91
GEORGETOWN     NOT AVBL
WALTERBORO     CLOUDY    81  79  94 SW10G16   29.89S
ORANGEBURG     CLOUDY    80  73  79 SW8       29.86S
6HR MIN TEMP:  78; 6HR MAX TEMP:  80;

BARNWELL       FAIR      81  73  78 W7        29.89R
AIKEN          FAIR      81  75  83 SW10G16   29.91S
MANNING        FAIR      81  77  89 SW7       29.85R
KINGSTREE      NOT AVBL
COLUMBIA       CLOUDY    83  72  69 W9        29.84R
6HR MIN TEMP:  82; 6HR MAX TEMP:  85;

SUMTER         CLOUDY    80  74  83 SW8       29.83R
6HR MIN TEMP:  80; 6HR MAX TEMP:  83;

FLORENCE       CLOUDY    81  73  76 SW6       29.82R
6HR MIN TEMP:  81; 6HR MAX TEMP:  83;

MYRTLE BEACH   PTSUNNY   82  73  74 SW8       29.83R
N MYRTLE BEACH PTSUNNY   82  73  74 SW8       29.82S
6HR MIN TEMP:  82; 6HR MAX TEMP:  84;


$$

GAZ063-065-086>088-099>101-113>116-118-119-134-136>141-150-281300-
...GEORGIA...

CITY           SKY/WX    TMP DP  RH WIND       PRES   REMARKS
SAVANNAH ARPT  PTSUNNY   81  75  82 SW8       29.93S
6HR MIN TEMP:  80; 6HR MAX TEMP:  84;

HUNTER AAF     MOSUNNY   80  76  89 SW8       29.92S
6HR MIN TEMP:  79; 6HR MAX TEMP:  82;

FORT STEWART   MOSUNNY   80  75  85 SW6       29.94S
6HR MIN TEMP:  79; 6HR MAX TEMP:  83;

STATESBORO     NOT AVBL
SYLVANIA       PTSUNNY   82  78  89 SW7       29.92S HX  90
CLAXTON        FAIR      82  81  94 W6        29.94S HX  95
THOMSON        PTSUNNY   81  78  91 SW6       29.93S
AUGUSTA-BUSH   PTSUNNY   81  73  76 W8        29.87S
6HR MIN TEMP:  80; 6HR MAX TEMP:  82;

AUGUSTA-DANIEL PTSUNNY   82  73  74 W6        29.89R
SWAINSBORO     FAIR      81  81 100 W7        29.94R HX  91
VIDALIA          N/A     81  77  89 SW8       29.95S
ALMA           MOSUNNY   79  75  87 SW6       29.98R
6HR MIN TEMP:  78; 6HR MAX TEMP:  81;

WAYCROSS       PTSUNNY   83  79  89 W8        29.98S HX  93
JESUP          NOT AVBL
BRUNSWICK      MOSUNNY   81  75  83 W9        29.98S
SAINT SIMONS   MOSUNNY   80  76  87 W10       29.97S
6HR MIN TEMP:  79; 6HR MAX TEMP:  82;


$$

SCZ027-028-034-036>038-045-046-048>050-GAZ119-141-281300-
...LAKE AND SUPPLEMENTAL COASTAL OBSERVATIONS...

STATION/POSITION TIME  TEMP    WIND        PRES    WAVE   SWELL
                       AIR SEA DIR/SP/G            HT/PER HT/PER/DIR
                 (UTC) (F)     (DEG/KT/KT) (MB)    (FT/S) (FT/S/D)
UPR LAKE MARION  NOT AVBL
WINYAH BAY       1200   82     230/  9     1010.0S
LAKE MURRAY      1200   82     260/  9/ 11 1009.8S
ACE BASIN NERRS  1200   81     250/  2     1012.0S
FORT PULASKI     1200   82     230/  8/ 13 1013.7S
SAPELO ISLAND    1200   81     250/ 12     1015.0S

$$

ANZ835-935-AMZ111-154-330-350-352-354-374-450-454-472-281300-
...C-MAN AND BUOY OBSERVATIONS...

STATION/POSITION TIME  TEMP    WIND        PRES    WAVE   SWELL
                       AIR SEA DIR/SP/G            HT/PER HT/PER/DIR
                 (UTC) (F)     (DEG/KT/KT) (MB)    (FT/S) (FT/S/D)
FOLLY BEACH CMAN 1200   83     240/ 11/ 15 1012.5R
BUOY 41004       1200   84 83  240/ 17/ 21 1011.1F   5/ 6   2/ 8
BUOY 41008       1200   83 84  270/ 16/ 19 1013.9R   3/ 4   2/130/ 8
5E ST. MARYS GA  1200      85                N/A     3/ 3
FRYING PAN BUOY  NOT AVBL
BUOY 41025       1200          VRB 21/ 25  1007.9F   6/ 6   2/250/14
CAPE LOOKOUT NC  1200   83     220/ 12/ 16 1008.6F
BUOY 41002       1128   81 80  240/ 17/ 21 1015.0R   6/ 7   2/140/ 9
BUOY 41010       1200   84 84  270/ 14/ 17 1016.9S   5/ 5   2/140/ 9
BUOY 41012       NOT AVBL
ST AUGUSTINE FL  1200   81     240/  7/  9 1017.1R
CAPERS NEARSHORE 1100   84     270/ 16/ 17   N/A
FRIPP NEARSHORE  NOT AVBL


$$



USA.gov is the U.S. government's official web portal to all federal, state and local government web resources and services.